EW3693 Weather Reports


time (UTC)temp
F
wind
direction
speed
knots
gust
knots
rain 1hr
in
rain 24hr
in
rain mn
in
humidity
%
barometer
mb
20260906202517 55 0.0 0.0 0.00 0.01 0.01 95 1024.8
20260906201537 55 0.0 0.0 0.00 0.01 0.01 95 1024.9
20260906200517 55 0.0 0.0 0.00 0.01 0.01 95 1025.0
20260906195517 55 0.0 0.0 0.00 0.01 0.01 95 1025.1
20260906194517 55 0.0 0.0 0.00 0.01 0.01 94 1025.2
20260906193517 55 0.0 0.0 0.00 0.01 0.01 94 1025.1
20260906192517 55 0.0 0.0 0.00 0.01 0.01 93 1025.1
20260906191517 56 0.0 0.0 0.00 0.01 0.01 93 1025.3
20260906190517 56 0.0 0.0 0.00 0.01 0.01 93 1025.3
20260906185517 56 0.0 0.0 0.00 0.01 0.01 92 1025.4
20260906184537 57 0.0 0.0 0.00 0.01 0.01 91 1025.4
20260906183517 57 0.0 0.0 0.00 0.01 0.01 91 1025.3
20260906182537 58 0.0 0.0 0.00 0.01 0.01 90 1025.4
20260906181517 58 0.0 0.0 0.00 0.01 0.01 90 1025.4
20260906180537 58 0.0 0.0 0.00 0.01 0.01 89 1025.4
20260906175517 59 0.0 0.0 0.00 0.01 0.01 87 1025.4
20260906174517 60 0.0 0.0 0.00 0.01 0.01 86 1025.4
20260906173517 61 0.0 0.0 0.00 0.01 0.01 85 1025.5
20260906172517 61 0.0 1.7 0.00 0.01 0.01 82 1025.6
20260906171517 62 225 0.9 2.6 0.00 0.01 0.01 80 1025.6
20260906170517 63 225 0.9 2.6 0.00 0.01 0.01 78 1025.6
20260906165517 63 225 0.9 1.7 0.00 0.01 0.01 77 1025.7
20260906164537 63 0 0.9 1.7 0.00 0.01 0.01 78 1025.8
20260906163517 63 248 1.7 2.6 0.00 0.01 0.01 80 1025.9
20260906162517 64 0 2.6 3.5 0.00 0.01 0.01 82 1026.0
20260906161517 63 0 2.6 5.2 0.00 0.01 0.01 83 1026.0
20260906160517 63 0 0.9 2.6 0.00 0.01 0.01 83 1025.9
20260906155517 64 0 1.7 2.6 0.00 0.01 0.01 78 1025.9
20260906154537 64 0 0.9 2.6 0.00 0.01 0.01 80 1025.8
20260906153516 65 0 2.6 4.3 0.00 0.01 0.01 77 1025.8
20260906152516 67 0 6.1 8.7 0.00 0.01 0.01 74 1025.8
20260906151517 67 0 5.2 8.7 0.00 0.01 0.01 74 1025.9
20260906150516 68 0 7.0 9.6 0.00 0.01 0.01 77 1025.9
20260906145516 69 0 9.6 12.2 0.00 0.06 0.01 73 1026.0
20260906144517 69 0 10.4 13.9 0.00 0.06 0.01 76 1026.0
20260906143517 69 0 8.7 12.2 0.00 0.06 0.01 76 1025.9
20260906142516 70 0 9.6 13.0 0.00 0.06 0.01 71 1026.1
20260906141517 67 0 4.3 7.8 0.00 0.06 0.01 76 1025.9
20260906140537 69 0 3.5 7.8 0.00 0.06 0.01 71 1025.9
20260906135516 67 0 4.3 7.8 0.00 0.06 0.01 77 1026.0
20260906134517 66 0 7.0 10.4 0.00 0.06 0.01 77 1026.2
20260906133517 67 0 7.0 11.3 0.00 0.06 0.01 78 1026.2
20260906132516 67 0 8.7 12.2 0.00 0.06 0.01 75 1026.2
20260906131517 70 0 7.0 11.3 0.00 0.06 0.01 71 1026.2
20260906130516 69 0 7.8 11.3 0.00 0.06 0.01 71 1026.2
20260906125516 72 0 7.0 11.3 0.00 0.08 0.01 76 1026.3
20260906124517 69 0 7.0 11.3 0.00 0.08 0.01 74 1026.4
20260906123536 66 0 8.7 10.4 0.00 0.08 0.01 76 1026.3
20260906122518 65 0 8.7 11.3 0.00 0.08 0.01 76 1026.3
20260906121518 65 0 7.8 12.2 0.00 0.08 0.01 75 1026.4
20260906120519 66 0 7.8 10.4 0.00 0.08 0.01 73 1026.4
20260906115517 67 0 7.8 12.2 0.00 0.27 0.01 73 1026.3
20260906114518 68 0 10.4 13.9 0.00 0.27 0.01 74 1026.4
20260906113518 65 0 10.4 13.9 0.00 0.27 0.01 75 1026.4
20260906112518 65 0 11.3 14.8 0.00 0.27 0.01 76 1026.4
20260906111518 68 0 11.3 15.6 0.00 0.27 0.01 70 1026.4
20260906110518 65 0 10.4 15.6 0.00 0.27 0.01 75 1026.3
20260906105518 67 0 9.6 13.9 0.00 0.27 0.01 76 1026.2
20260906104518 65 0 10.4 14.8 0.00 0.27 0.01 74 1026.3
20260906103518 68 0 13.0 18.2 0.00 0.27 0.01 73 1026.2
20260906102518 67 0 9.6 15.6 0.00 0.27 0.01 75 1026.3
20260906101558 66 0 10.4 16.5 0.00 0.27 0.01 75 1026.1
20260906100518 66 0 9.6 13.0 0.00 0.27 0.01 74 1026.1
20260906095518 64 0 7.8 11.3 0.00 0.27 0.01 80 1026.1
20260906094518 64 0 10.4 13.9 0.00 0.27 0.01 79 1026.0
20260906093538 63 0 8.7 13.9 0.00 0.27 0.01 79 1026.0
20260906092518 64 0 10.4 13.9 0.00 0.27 0.01 79 1025.9
20260906091518 64 0 9.6 11.3 0.00 0.27 0.01 81 1025.9
20260906090518 63 0 11.3 13.9 0.00 0.27 0.01 81 1025.9
20260906085538 63 0 10.4 13.0 0.00 0.27 0.01 79 1025.9
20260906084518 62 0 8.7 13.0 0.00 0.27 0.01 80 1025.8
20260906083558 62 0 7.8 11.3 0.00 0.27 0.01 84 1025.7
20260906082538 62 0 6.1 8.7 0.00 0.27 0.01 85 1025.7
20260906081518 61 0 8.7 13.0 0.00 0.27 0.01 86 1025.6
20260906080518 61 0 9.6 12.2 0.00 0.27 0.01 86 1025.6
20260906075518 60 0 9.6 13.9 0.00 0.27 0.01 87 1025.6
20260906074538 60 0 10.4 13.0 0.00 0.27 0.01 89 1025.5
20260906073517 59 0 9.6 13.0 0.00 0.27 0.01 89 1025.5
20260906072517 58 0 9.6 13.0 0.00 0.27 0.01 90 1025.4
20260906071538 58 0 9.6 13.0 0.00 0.27 0.01 93 1025.3
20260906070517 57 0 10.4 13.0 0.00 0.27 0.01 92 1025.3
20260906065517 57 0 10.4 13.0 0.00 0.27 0.01 94 1025.1
20260906064518 56 0 7.8 10.4 0.00 0.27 0.01 95 1025.1
20260906063517 55 0 7.0 9.6 0.00 0.27 0.01 95 1024.9
20260906062518 55 0 7.8 10.4 0.00 0.27 0.01 96 1024.7
20260906061538 54 0 8.7 10.4 0.00 0.27 0.01 97 1024.6
20260906060517 53 0 7.8 9.6 0.00 0.27 0.01 97 1024.6
20260906055518 53 0 6.1 9.6 0.00 0.27 0.01 97 1024.4
20260906054538 52 0 5.2 8.7 0.00 0.27 0.01 97 1024.3
20260906053517 52 0 6.1 8.7 0.00 0.27 0.01 97 1024.3
20260906052518 51 0 5.2 7.8 0.00 0.27 0.01 98 1024.1
20260906051537 51 0 7.0 8.7 0.00 0.27 0.01 97 1024.0
20260906050517 51 0 6.1 9.6 0.00 0.27 0.01 97 1024.0
20260906045518 51 0 6.1 7.8 0.00 0.27 0.01 98 1023.9
20260906044518 50 0 7.0 10.4 0.00 0.27 0.01 97 1023.7
20260906043538 51 0 6.1 7.8 0.00 0.27 0.01 97 1023.7
20260906042517 51 0 6.1 8.7 0.00 0.27 0.01 97 1023.6
20260906041517 51 0 7.0 9.6 0.01 0.27 0.01 97 1023.6
20260906040517 51 0 7.8 11.3 0.01 0.27 0.01 97 1023.4
20260906035517 51 0 8.7 11.3 0.01 0.27 0.01 97 1023.4
20260906034517 52 0 7.8 10.4 0.01 0.27 0.01 97 1023.3
20260906033517 51 0 7.8 10.4 0.01 0.27 0.01 97 1023.3
20260906032517 51 0 7.0 9.6 0.01 0.27 0.01 97 1023.2
20260906031517 51 0 7.0 9.6 0.00 0.26 0.00 97 1023.2
20260906030517 51 0 7.8 10.4 0.00 0.26 0.00 97 1023.1
20260906025557 51 0 7.8 10.4 0.00 0.26 0.00 97 1023.0
20260906024517 51 0 8.7 12.2 0.00 0.26 0.00 97 1022.9
20260906023517 51 0 7.0 8.7 0.00 0.26 0.00 97 1023.0
20260906022517 51 0 7.0 8.7 0.00 0.26 0.00 97 1022.8
20260906021517 51 0 7.0 9.6 0.00 0.26 0.00 97 1022.7
20260906020517 51 0 7.0 9.6 0.00 0.26 0.00 97 1022.6
20260906015517 52 0 7.8 9.6 0.00 0.26 0.00 97 1022.6
20260906014517 52 0 7.8 10.4 0.00 0.26 0.00 97 1022.5
20260906013517 52 0 7.8 9.6 0.00 0.26 0.00 97 1022.4
20260906012537 52 0 7.8 9.6 0.00 0.26 0.00 97 1022.3
20260906011517 52 0 7.0 8.7 0.00 0.26 0.00 97 1022.2
20260906010517 52 0 7.0 9.6 0.00 0.26 0.00 97 1022.2
20260906005517 52 0 7.0 9.6 0.00 0.26 0.00 97 1022.2
20260906004537 52 0 7.8 9.6 0.00 0.26 0.00 97 1022.2
20260906003517 52 0 7.8 10.4 0.00 0.26 0.00 96 1022.0
20260906002537 52 0 7.0 9.6 0.00 0.26 0.00 96 1021.9
20260906001517 52 0 6.1 7.8 0.00 0.26 0.00 96 1021.8
20260906000517 52 0 5.2 7.0 0.00 0.26 0.00 96 1021.8
20260905235517 53 0 6.1 7.8 0.00 0.28 0.00 96 1021.7
20260905234517 53 0 7.8 10.4 0.00 0.28 0.00 96 1021.5
20260905233516 53 0 8.7 11.3 0.00 0.28 0.00 96 1021.6
20260905232536 53 0 7.8 10.4 0.00 0.28 0.00 96 1021.5
20260905231517 53 0 8.7 11.3 0.00 0.28 0.00 96 1021.4
20260905230517 53 0 9.6 13.0 0.00 0.28 0.00 96 1021.4
20260905225557 54 0 8.7 11.3 0.00 0.28 0.00 96 1021.4
20260905224517 54 0 9.6 12.2 0.00 0.28 0.00 96 1021.5
20260905223516 54 0 9.6 12.2 0.00 0.28 0.00 96 1021.3
20260905222516 54 0 9.6 12.2 0.00 0.28 0.00 96 1021.2
20260905221517 54 0 9.6 11.3 0.00 0.28 0.00 96 1021.1
20260905220517 54 0 9.6 12.2 0.00 0.28 0.00 96 1021.1
20260905215517 54 0 7.8 10.4 0.00 0.28 0.28 96 1021.0
20260905214516 54 0 8.7 11.3 0.00 0.28 0.28 96 1020.9
20260905213516 54 0 10.4 15.6 0.00 0.28 0.28 96 1020.8
20260905212516 54 0 9.6 13.0 0.00 0.28 0.28 96 1020.6
20260905211516 54 0 10.4 12.2 0.00 0.28 0.28 96 1020.5
20260905210517 54 0 8.7 12.2 0.00 0.28 0.28 95 1020.3
20260905205517 54 0 9.6 13.0 0.00 0.28 0.28 95 1020.2
20260905204516 54 0 8.7 11.3 0.00 0.28 0.28 95 1020.1
20260905203516 55 0 8.7 11.3 0.00 0.28 0.28 95 1020.0